Location: Richmond
(37.5536°N, 77.4606°W)
Time: 02:38:15
(UTC-04:00)

ISS - Visible Passes

Search period start: 03 August 2015 00:00
Search period end: 13 August 2015 00:00
Orbit: 401 x 403 km, 51.6° (Epoch: 02 August)

Date Brightness Start Highest point End Pass type
(mag) Time Alt. Az. Time Alt. Az. Time Alt. Az.
03 Aug -0.2 22:00:39 10° WNW 22:02:44 15° NNW 22:04:45 10° NNE visible
04 Aug -0.8 21:06:45 10° W 21:09:28 23° NNW 21:12:09 10° NNE visible
05 Aug 0.1 21:52:55 10° NNW 21:53:27 10° NNW 21:53:55 10° N visible
06 Aug -0.3 20:58:13 10° WNW 21:00:05 14° NNW 21:01:53 10° NNE visible
09 Aug 0.0 23:11:13 10° N 23:11:36 11° N 23:11:36 11° N visible
11 Aug -0.2 23:00:43 10° NNW 23:01:31 14° N 23:01:31 14° N visible
12 Aug -0.7 22:08:07 10° N 22:09:48 13° NNE 22:10:13 13° NNE visible
